GW4174 Weather Reports


Display with metric or nautical units.
time (UTC)temp
F
wind
direction
speed
MPH
gust
MPH
rain 1hr
in
rain 24hr
in
rain mn
in
humidity
%
barometer
mb
20260503020006 66 61 0.0 1.0 0.00 0.00 0.00 44 1014.4
20260503014508 65 315 0.0 0.0 0.00 0.00 0.00 39 1014.4
20260503013024 66 314 0.0 0.0 0.00 0.00 0.00 38 1014.4
20260503011522 68 316 0.0 1.0 0.00 0.00 0.00 33 1014.4
20260503010023 68 49 1.0 2.0 0.00 0.00 0.00 33 1014.5
20260503004506 69 293 0.0 2.0 0.00 0.00 0.00 34 1014.5
20260503003011 69 335 1.0 3.0 0.00 0.00 0.00 31 1014.6
20260503001516 69 117 1.0 4.0 0.00 0.00 0.00 34 1014.6
20260503000020 67 120 1.0 3.0 0.00 0.00 0.00 40 1014.7
20260502234521 68 120 3.0 4.0 0.00 0.00 0.00 44 1014.6
20260502233007 68 158 1.0 5.0 0.00 0.00 0.00 40 1014.8
20260502231518 67 159 5.0 10.0 0.00 0.00 0.00 37 1014.9
20260502230020 69 171 5.0 8.0 0.00 0.00 0.00 34 1015.1
20260502224523 70 170 1.0 3.0 0.00 0.00 0.00 34 1015.3
20260502223028 71 229 0.0 6.0 0.00 0.00 0.00 31 1015.4
20260502221508 71 181 3.0 5.0 0.00 0.00 0.00 30 1015.6
20260502220016 71 247 3.0 5.0 0.00 0.00 0.00 31 1015.8
20260502214524 71 268 3.0 7.0 0.00 0.00 0.00 28 1015.8
20260502213024 71 275 4.0 6.0 0.00 0.00 0.00 29 1016.0
20260502211526 70 285 2.0 8.0 0.00 0.00 0.00 26 1016.2
20260502210011 70 238 3.0 7.0 0.00 0.00 0.00 27 1016.4
20260502204517 70 283 5.0 7.0 0.00 0.00 0.00 28 1016.6
20260502203023 70 190 1.0 6.0 0.00 0.00 0.00 30 1016.8
20260502201530 69 22 2.0 6.0 0.00 0.00 0.00 32 1017.0
20260502200026 69 272 1.0 4.0 0.00 0.00 0.00 33 1017.1
20260502194514 68 274 1.0 6.0 0.00 0.00 0.00 33 1017.5
20260502193020 67 201 0.0 7.0 0.00 0.00 0.00 38 1017.6
20260502191522 67 159 3.0 6.0 0.00 0.00 0.00 37 1017.7
20260502190028 66 266 1.0 5.0 0.00 0.00 0.00 40 1017.9
20260502184527 65 307 2.0 7.0 0.00 0.00 0.00 37 1018.1
20260502183028 65 83 0.0 6.0 0.00 0.00 0.00 37 1018.2
20260502181521 64 253 3.0 6.0 0.00 0.00 0.00 41 1018.4
20260502163013 58 1 1.0 4.0 0.00 0.00 0.00 51 1019.1
20260502161517 57 69 1.0 4.0 0.00 0.00 0.00 56 1019.1
20260502151511 50 101 0.0 3.0 0.00 0.00 0.00 70 1019.0
20260502123030 38 291 0.0 2.0 0.00 0.00 0.00 86 1018.2
20260502121522 39 59 0.0 0.0 0.00 0.00 0.00 86 1018.2
20260502114526 40 11 0.0 1.0 0.00 0.00 0.00 84 1018.3
20260502113014 39 8 0.0 0.0 0.00 0.00 0.00 86 1018.3
20260502111520 38 8 0.0 2.0 0.00 0.00 0.00 84 1018.3
20260502110022 40 278 0.0 2.0 0.00 0.00 0.00 82 1018.2
20260502104525 40 315 0.0 2.0 0.00 0.00 0.00 83 1018.1
20260502103031 40 92 0.0 0.0 0.00 0.00 0.00 81 1017.8
20260502101513 40 129 0.0 2.0 0.00 0.00 0.00 80 1017.6
20260502091512 43 333 0.0 0.0 0.00 0.00 0.00 77 1017.4
20260502071510 46 118 0.0 0.0 0.00 0.00 0.00 69 1017.2
20260502070012 47 62 0.0 5.0 0.00 0.00 0.00 68 1017.1
20260502064512 48 63 0.0 0.0 0.00 0.00 0.00 64 1017.0
20260502063002 48 63 0.0 0.0 0.00 0.00 0.00 65 1017.1
20260502061504 50 282 1.0 2.0 0.00 0.00 0.00 63 1017.0
20260502060008 50 231 0.0 2.0 0.00 0.00 0.00 59 1016.9
20260502054521 51 18 2.0 2.0 0.00 0.00 0.00 57 1016.8
20260502053018 52 57 0.0 1.0 0.00 0.00 0.00 57 1016.7
20260502051523 52 70 0.0 0.0 0.00 0.00 0.00 60 1016.6
20260502050013 53 280 0.0 1.0 0.00 0.00 0.00 60 1016.5
20260502044507 55 279 0.0 2.0 0.00 0.00 0.00 52 1016.4
20260502043014 57 288 0.0 8.0 0.00 0.00 0.00 49 1016.4
20260502041525 57 285 0.0 2.0 0.00 0.00 0.00 45 1016.2
20260502040022 58 91 0.0 1.0 0.00 0.00 0.00 45 1016.0
20260502034511 59 286 0.0 2.0 0.00 0.00 0.00 45 1015.9
20260502033017 61 95 0.0 1.0 0.00 0.00 0.00 41 1015.8
20260502031517 62 79 0.0 3.0 0.00 0.00 0.00 40 1015.6
20260502030029 63 94 0.0 3.0 0.00 0.00 0.00 39 1015.4
20260502024526 63 112 1.0 4.0 0.00 0.00 0.00 37 1015.2
20260502023009 64 118 4.0 6.0 0.00 0.00 0.00 34 1015.2
20260502021512 65 130 5.0 8.0 0.00 0.00 0.00 36 1015.0